Doha, Qatar

3:40 AM AST on January 22, 2017 (GMT +0300)
Doha

Weather History for OTBD - December, 2012

Change the Weather History Date:

Monday, December 3, 2012

  Actual Average Record
Temperature  
Mean Temperature 70 °F -  
Max Temperature 77 °F 75 °F 90 °F (2016)
Min Temperature 62 °F 59 °F 59 °F (2006)
Cooling Degree Days 4    
Growing Degree Days 20 (Base 50)    
Moisture  
Dew Point 53 °F    
Average Humidity 58    
Maximum Humidity 73    
Minimum Humidity 39    
Precipitation  
Precipitation 0.00 in 0.02 in - ()
Sea Level Pressure  
Sea Level Pressure 30.04 in    
Wind  
Wind Speed 6 mph ()    
Max Wind Speed 12 mph    
Max Gust Speed -    
Visibility 5.8 miles    
Events      
Averages and records for this station are not official NWS values.
T = Trace of Precipitation, MM = Missing Value Source: Averaged Metar Reports

Daily Weather History Graph

Daily Weather History Graph

Search for Another Location

Airport or City:

Trip Planner

Search our weather history database for the weather conditions in past years. The results will help you decide how hot, cold, wet, or windy it might be!

Date:

Astronomy

Dec. 03, 2012 Rise Set
Actual Time 6:03 AM AST 4:43 PM AST
Civil Twilight 5:38 AM AST 5:08 PM AST
Nautical Twilight 5:10 AM AST 5:36 PM AST
Astronomical Twilight 4:42 AM AST 6:04 PM AST
Moon 8:53 PM AST (12/3) 9:25 AM AST (12/3)
Length of Visible Light 11h 29m
Length of Day
10h 39m
Waning Gibbous, 81% of the Moon is Illuminated
Dec 3
Waning Gibbous
Dec 6
Last Quarter
Dec 13
New
Dec 20
First Quarter
Dec 28
Full

Hourly Weather History & Observations

Time (AST) Temp. Dew Point Humidity Pressure Visibility Wind Dir Wind Speed Gust Speed Precip Events Conditions
12:00 AM 66.2 °F 50.0 °F 56% 30.04 in - West 5.8 mph - N/A   Clear
12:30 AM 64.4 °F 50.0 °F 59% 30.04 in - WNW 4.6 mph - N/A   Clear
1:00 AM 64.4 °F 50.0 °F 59% 30.04 in - WNW 6.9 mph - N/A   Clear
1:30 AM 64.4 °F 48.2 °F 56% 30.04 in - West 4.6 mph - N/A   Clear
2:00 AM 64.4 °F 50.0 °F 59% 30.04 in - West 5.8 mph - N/A   Clear
2:30 AM 64.4 °F 51.8 °F 64% 30.01 in - West 4.6 mph - N/A   Clear
3:00 AM 63 °F 52 °F 59% 30.03 in 6 mi West 3.5 mph - -   Clear
3:00 AM 62.6 °F 51.8 °F 68% 30.01 in - West 3.5 mph - N/A   Clear
3:30 AM 62.6 °F 51.8 °F 68% 30.04 in - West 4.6 mph - N/A   Clear
4:00 AM 62.6 °F 53.6 °F 72% 30.04 in - West 4.6 mph - N/A   Clear
4:30 AM 62.6 °F 53.6 °F 72% 30.04 in - West 3.5 mph - N/A   Clear
5:00 AM 64.4 °F 55.4 °F 73% 30.04 in - West 4.6 mph - N/A   Clear
5:30 AM 64.4 °F 53.6 °F 68% 30.04 in 5.0 mi WNW 4.6 mph - N/A   Unknown
6:00 AM 64.4 °F 53.6 °F 68% 30.06 in 3.7 mi WNW 4.6 mph - N/A   Unknown
6:30 AM 64.4 °F 53.6 °F 68% 30.06 in 3.7 mi WNW 8.1 mph - N/A   Unknown
7:00 AM 64.4 °F 53.6 °F 68% 30.06 in 3.7 mi West 4.6 mph - N/A   Unknown
7:30 AM 64.4 °F 55.4 °F 73% 30.06 in 4.3 mi Variable 5.8 mph - N/A   Unknown
8:00 AM 66.2 °F 55.4 °F 68% 30.09 in 4.3 mi WNW 6.9 mph - N/A   Unknown
8:30 AM 68.0 °F 55.4 °F 64% 30.09 in 5.0 mi WNW 8.1 mph - N/A   Unknown
9:00 AM 69 °F 55 °F 51% 30.11 in 5 mi NW 6.9 mph - -   Smoke
9:00 AM 69.8 °F 55.4 °F 60% 30.09 in 5.0 mi NW 6.9 mph - N/A   Unknown
9:30 AM 71.6 °F 55.4 °F 57% 30.09 in - NW 6.9 mph - N/A   Clear
10:00 AM 71.6 °F 53.6 °F 53% 30.09 in - WNW 8.1 mph - N/A   Clear
10:30 AM 71.6 °F 53.6 °F 53% 30.06 in - WNW 6.9 mph - N/A   Clear
11:00 AM 73.4 °F 51.8 °F 47% 30.06 in - WNW 6.9 mph - N/A   Clear
11:30 AM 75.2 °F 53.6 °F 47% 30.04 in - West 5.8 mph - N/A   Clear
12:00 PM 75.2 °F 53.6 °F 47% 30.04 in 6.2 mi West 5.8 mph - N/A   Partly Cloudy
12:30 PM 75.2 °F 53.6 °F 47% 30.01 in 6.2 mi Variable 3.5 mph - N/A   Partly Cloudy
1:00 PM 77.0 °F 53.6 °F 44% 30.01 in 6.2 mi Variable 3.5 mph - N/A   Partly Cloudy
1:30 PM 77.0 °F 51.8 °F 41% 29.98 in - North - - N/A   Partly Cloudy
2:00 PM 77.0 °F 51.8 °F 41% 29.98 in 6.2 mi Variable 2.3 mph - N/A   Partly Cloudy
2:30 PM 73.4 °F 55.4 °F 53% 29.98 in 6.2 mi North 10.4 mph - N/A   Partly Cloudy
3:00 PM 74 °F 54 °F 39% 29.99 in 9 mi North 9.2 mph - -   Scattered Clouds
3:00 PM 73.4 °F 53.6 °F 50% 29.98 in 6.2 mi North 9.2 mph - N/A   Partly Cloudy
3:30 PM 73.4 °F 53.6 °F 50% 29.98 in 6.2 mi North 10.4 mph - N/A   Partly Cloudy
4:00 PM 73.4 °F 53.6 °F 50% 29.98 in 6.2 mi NNE 8.1 mph - N/A   Partly Cloudy
4:30 PM 71.6 °F 55.4 °F 57% 29.98 in 6.2 mi North 11.5 mph - N/A   Partly Cloudy
5:00 PM 71.6 °F 57.2 °F 60% 30.01 in 6.2 mi North 10.4 mph - N/A   Partly Cloudy
5:30 PM 69.8 °F 59.0 °F 68% 30.01 in 6.2 mi NNE 5.8 mph - N/A   Partly Cloudy
6:00 PM 69.8 °F 53.6 °F 56% 30.01 in 6.2 mi NNW 9.2 mph - N/A   Scattered Clouds
6:30 PM 69.8 °F 51.8 °F 53% 30.01 in 6.2 mi NNW 11.5 mph - N/A   Partly Cloudy
7:00 PM 68.0 °F 50.0 °F 52% 30.04 in - NNW 9.2 mph - N/A   Clear
7:30 PM 68.0 °F 50.0 °F 52% 30.04 in - NNW 10.4 mph - N/A   Clear
8:00 PM 68.0 °F 51.8 °F 56% 30.04 in - NNW 5.8 mph - N/A   Clear
8:30 PM 68.0 °F 51.8 °F 56% 30.04 in - NNW 8.1 mph - N/A   Clear
9:00 PM 67 °F 52 °F 49% 30.06 in 10 mi NW 5.8 mph - -   Scattered Clouds
9:00 PM 68.0 °F 51.8 °F 56% 30.04 in - NW 5.8 mph - N/A   Clear
9:30 PM 68.0 °F 51.8 °F 56% 30.04 in - NW 5.8 mph - N/A   Clear
10:00 PM 66.2 °F 53.6 °F 64% 30.04 in - WNW 5.8 mph - N/A   Clear
10:30 PM 66.2 °F 55.4 °F 68% 30.04 in - WNW 6.9 mph - N/A   Clear
11:00 PM 66.2 °F 55.4 °F 68% 30.04 in - NW 4.6 mph - N/A   Clear
11:30 PM 66.2 °F 55.4 °F 68% 30.04 in - NW 4.6 mph - N/A   Clear